Regional Weather Roundup
Issued by NWS Sioux Falls, SD

Home | Current Version | Previous Version | Text Only | Print | Product List | Glossary Off
Versions: 1 2 3 4 5 6 7 8 9 10 11 12 13 14 15 16 17 18 19 20 21 22 23 24 25 26 27 28 29 30 31 32 33 34 35 36 37 38 39 40 41 42 43 44 45 46 47 48 49 50

000
ASUS43 KFSD 202310
RWRFSD

WEATHER ROUNDUP FOR SE SOUTH DAKOTA/SW MINNESOTA/NW IOWA
NATIONAL WEATHER SERVICE SIOUX FALLS SD
500 PM CST MON NOV 20 2017

NOTE: "FAIR" INDICATES FEW OR NO CLOUDS BELOW 12,000 FEET WITH NO
SIGNIFICANT WEATHER AND OR OBSTRUCTIONS TO VISIBILITY.


SDZ038>040-050-052>070-210000-
SOUTHEAST SOUTH DAKOTA

CITY           SKY/WX    TMP DP  RH WIND       PRES   REMARKS
BROOKINGS      CLOUDY    45  26  47 SW8       29.51R
CHAMBERLAIN    CLOUDY    60  22  23 NW13G20   29.59R
HURON          CLEAR     47  20  34 W12       29.54R
MADISON        FAIR      46  25  42 SW10      29.53R
MITCHELL       CLOUDY    54  23  30 W10       29.55R
SIOUX FALLS    MOCLDY    48  28  46 SW5       29.55R
WINNER         FAIR      58  20  22 NW13      29.61R
YANKTON        PTCLDY    51  27  39 SW3       29.58R
$$

MNZ071-072-080-081-089-090-097-098-210000-
SOUTHWEST MINNESOTA

CITY           SKY/WX    TMP DP  RH WIND       PRES   REMARKS
FAIRMONT       CLOUDY    44  30  57 SW12      29.52S
JACKSON        CLOUDY    45  28  53 SW6       29.53F
LUVERNE        PTCLDY    41  25  52 SW5       29.56R
MARSHALL       CLOUDY    49  27  42 W21       29.48R
MONTEVIDEO     CLOUDY    50  23  34 NW7       29.47R
PIPESTONE      CLOUDY    43  27  52 SW8       29.53R
REDWOOD FALLS  CLOUDY    48  27  44 SW13      29.46R
WINDOM         CLOUDY    45  25  45 SW12      29.51R
WORTHINGTON    CLOUDY    45  27  49 SW16      29.53S
$$

IAZ001>003-012>014-020>022-031-032-NEZ013-014-SDZ071-210000-
NORTHWEST IOWA

CITY           SKY/WX    TMP DP  RH WIND       PRES   REMARKS
CHEROKEE       PTCLDY    46  28  49 SW6       29.60R
DENISON        CLOUDY    52  28  40 SW14G20   29.60R
ESTHERVILLE    PTCLDY    44  30  57 SW16      29.53S
LE MARS        CLOUDY    48  28  46 S7        29.59R
ORANGE CITY    CLOUDY    45  30  57 SW7       29.58S
SHELDON        CLOUDY    45  28  53 SW8       29.56R
SIOUX CITY     CLOUDY    46  29  51 NW5       29.61R
SPENCER        PTCLDY    47  29  49 SW9       29.56R
STORM LAKE     CLOUDY    46  28  49 W12       29.59R
$$

ABBREVIATIONS USED IN REMARKS
   TC - TEMPERATURE IN CELSIUS
  WCI - WIND CHILL INDEX
   HX - HEAT INDEX
  VSB - VISIBILITY




USA.gov is the U.S. government's official web portal to all federal, state and local government web resources and services.